Location: Carbonear
(47.7333°N, 53.2500°W)
Time: 13:49:12
(UTC+00:00)

TIGRISAT - Visible Passes

Search period start: 08 December 2022 00:00
Search period end: 18 December 2022 00:00
Orbit: 603 x 684 km, 97.7° (Epoch: 07 December)

Date Brightness Start Highest point End Pass type
(mag) Time Alt. Az. Time Alt. Az. Time Alt. Az.
08 Dec ? 08:27:05 10° SSE 08:31:29 75° ENE 08:32:01 65° NNE visible
08 Dec ? 10:06:36 10° WSW 10:08:41 13° W 10:09:40 12° WNW visible
08 Dec ? 20:15:50 10° NE 20:18:15 14° E 20:20:40 10° ESE visible
08 Dec ? 21:51:37 16° N 21:55:25 77° WNW 22:00:05 10° SSW visible
08 Dec ? 23:29:33 10° NW 23:31:14 12° NW 23:32:54 10° WNW visible
09 Dec ? 07:17:03 10° ESE 07:19:08 17° ENE 07:19:08 17° ENE visible
09 Dec ? 08:51:44 10° S 08:56:07 63° W 08:56:48 55° WNW visible
09 Dec ? 20:39:24 10° NE 20:43:09 23° E 20:46:53 10° SE visible
09 Dec ? 22:16:31 16° N 22:19:58 45° WNW 22:24:24 10° SW visible
10 Dec ? 07:40:34 10° ESE 07:43:55 27° ENE 07:43:55 27° ENE visible
10 Dec ? 09:16:45 10° SSW 09:20:50 36° W 09:21:34 34° WNW visible
10 Dec ? 21:03:45 11° NNE 21:07:58 39° E 21:12:19 10° SSE visible
10 Dec ? 22:41:24 15° NNW 22:44:25 28° WNW 22:48:22 10° WSW visible
11 Dec ? 08:04:32 10° SE 08:08:42 46° ENE 08:08:42 46° ENE visible
11 Dec ? 09:42:14 10° SW 09:45:39 21° W 09:46:20 21° WNW visible
11 Dec ? 21:28:38 14° NNE 21:32:40 67° ESE 21:37:18 10° S visible
11 Dec ? 23:06:17 12° NNW 23:08:47 18° WNW 23:11:53 10° WSW visible
12 Dec ? 08:28:52 10° SSE 08:33:19 79° ENE 08:33:29 78° NE visible
12 Dec ? 10:08:37 10° WSW 10:10:34 13° W 10:11:08 12° WNW visible
12 Dec ? 20:17:33 10° NE 20:20:09 15° E 20:22:44 10° ESE visible
12 Dec ? 21:53:30 16° N 21:57:17 73° WNW 22:01:56 10° SSW visible
12 Dec ? 23:31:38 10° NW 23:33:03 11° NW 23:34:28 10° WNW visible
13 Dec ? 07:18:42 10° ESE 07:20:36 17° E 07:20:36 17° E visible
13 Dec ? 08:53:32 10° S 08:57:58 60° W 08:58:15 58° W visible
13 Dec ? 20:41:13 10° NE 20:45:03 24° E 20:48:50 10° SSE visible
13 Dec ? 22:18:22 16° N 22:21:49 43° WNW 22:26:13 10° SW visible
14 Dec ? 07:42:16 10° SE 07:45:23 28° E 07:45:23 28° E visible
14 Dec ? 09:18:35 10° SSW 09:22:42 34° W 09:23:02 34° W visible
14 Dec ? 21:05:35 11° NNE 21:09:50 41° E 21:14:12 10° SSE visible
14 Dec ? 22:43:14 14° NNW 22:46:15 27° WNW 22:50:08 10° WSW visible
15 Dec ? 08:06:17 10° SE 08:10:10 47° E 08:10:10 47° E visible
15 Dec ? 09:44:07 10° SW 09:47:30 21° W 09:47:50 20° W visible
15 Dec ? 21:30:26 14° NNE 21:34:31 70° E 21:39:09 10° S visible
15 Dec ? 23:08:06 12° NNW 23:10:36 17° WNW 23:13:34 10° W visible
16 Dec ? 08:30:38 10° SSE 08:34:57 80° SE 08:34:57 80° SE visible
16 Dec ? 10:10:38 10° WSW 10:12:25 12° W 10:12:36 12° W visible
16 Dec ? 20:19:16 10° NE 20:22:01 15° E 20:24:45 10° SE visible
16 Dec ? 21:55:17 15° N 21:59:08 69° WNW 22:03:43 10° SSW visible
16 Dec ? 23:33:49 10° NW 23:34:51 11° NW 23:35:52 10° WNW visible
17 Dec ? 07:20:20 10° ESE 07:22:05 17° E 07:22:05 17° E visible
17 Dec ? 08:55:20 10° S 08:59:44 57° WSW 08:59:44 57° WSW visible
17 Dec ? 20:43:00 10° NE 20:46:53 25° E 20:50:43 10° SSE visible
17 Dec ? 22:20:08 15° N 22:23:38 41° WNW 22:27:58 10° SW visible
